Weather History for KCRW - May, 2013

Change the Weather History Date:

Thursday, May 16, 2013

  Actual Average Record
Temperature  
Mean Temperature 70 °F 64 °F  
Max Temperature 78 °F 75 °F 92 °F (1962)
Min Temperature 61 °F 53 °F 35 °F (1984)
Degree Days  
Heating Degree Days 0 4  
Month to date heating degree days 64 77  
Since 1 July heating degree days 4480 4425  
Cooling Degree Days 5 2  
Month to date cooling degree days 24 25  
Year to date cooling degree days 63 57  
Growing Degree Days 20 (Base 50)    
Moisture  
Dew Point 57 °F    
Average Humidity 72    
Maximum Humidity 100    
Minimum Humidity 44    
Precipitation  
Precipitation 0.77 in 0.15 in 1.54 in (1945)
Month to date precipitation 3.35 2.39  
Year to date precipitation 14.22 15.73  
Snow  
Snow 0.00 in - - ()
Month to date snowfall 0.0  
Since 1 September snowfall 25.3  
Snow Depth 0.00 in    
Sea Level Pressure  
Sea Level Pressure 29.95 in    
Wind  
Wind Speed 6 mph (SW)    
Max Wind Speed 18 mph    
Max Gust Speed 30 mph    
Visibility 8 miles    
Events Rain , Thunderstorm    
T = Trace of Precipitation, MM = Missing Value Source: NWS Daily Summary

Daily Weather History Graph

Daily Weather History Graph

Search for Another Location

Airport or City:

Trip Planner

Search our weather history database for the weather conditions in past years. The results will help you decide how hot, cold, wet, or windy it might be!

Date:

Astronomy

May. 16, 2013 Rise Set
Actual Time 6:14 AM EDT 8:31 PM EDT
Civil Twilight 5:44 AM EDT 9:01 PM EDT
Nautical Twilight 5:07 AM EDT 9:38 PM EDT
Astronomical Twilight 4:27 AM EDT 10:19 PM EDT
Moon 11:44 AM EDT (5/16) 12:53 AM EDT (5/16)
Length of Visible Light 15h 17m
Length of Day
14h 17m
Waxing Crescent, 35% of the Moon is Illuminated
May 16
Waxing Crescent
May 18
First Quarter
May 25
Full
May 31
Last Quarter
Jun 8
New

Hourly Weather History & Observations

Time (EDT) Temp. Dew Point Humidity Pressure Visibility Wind Dir Wind Speed Gust Speed Precip Events Conditions
12:54 AM 71.1 °F 50.0 °F 47% 29.89 in 10.0 mi SW 6.9 mph - N/A   Clear
1:54 AM 71.1 °F 50.0 °F 47% 29.89 in 10.0 mi SW 6.9 mph - N/A   Clear
2:54 AM 69.1 °F 50.0 °F 51% 29.89 in 10.0 mi SW 8.1 mph - N/A   Clear
3:54 AM 68.0 °F 48.9 °F 50% 29.88 in 10.0 mi SW 6.9 mph - N/A   Clear
4:54 AM 69.1 °F 48.0 °F 47% 29.88 in 10.0 mi SW 10.4 mph - N/A   Clear
5:54 AM 69.1 °F 46.9 °F 45% 29.90 in 10.0 mi SW 9.2 mph - N/A   Mostly Cloudy
6:54 AM 69.1 °F 46.9 °F 45% 29.91 in 10.0 mi WSW 9.2 mph - N/A   Mostly Cloudy
7:54 AM 69.1 °F 48.9 °F 49% 29.93 in 10.0 mi WSW 9.2 mph - N/A   Mostly Cloudy
8:54 AM 71.1 °F 51.1 °F 49% 29.92 in 10.0 mi SW 10.4 mph - N/A   Scattered Clouds
9:54 AM 72.0 °F 52.0 °F 49% 29.93 in 10.0 mi WSW 13.8 mph 20.7 mph N/A   Mostly Cloudy
10:54 AM 75.0 °F 55.0 °F 50% 29.94 in 10.0 mi WSW 9.2 mph 17.3 mph N/A   Mostly Cloudy
11:54 AM 75.0 °F 55.9 °F 51% 29.94 in 10.0 mi SW 11.5 mph - N/A   Overcast
12:54 PM 73.9 °F 57.0 °F 55% 29.95 in 10.0 mi West 8.1 mph 16.1 mph N/A   Overcast
1:54 PM 75.0 °F 59.0 °F 57% 29.94 in 10.0 mi Calm Calm - N/A   Overcast
2:39 PM 77.0 °F 59.0 °F 54% 29.95 in 10.0 mi Variable 3.5 mph - N/A Thunderstorm Thunderstorm
2:54 PM 75.2 °F 59.0 °F 57% 29.95 in 10.0 mi Calm Calm - N/A Thunderstorm Thunderstorm
3:46 PM 68.0 °F 64.4 °F 88% 29.96 in 6.0 mi Calm Calm - 0.34 in Rain , Thunderstorm Light Thunderstorms and Rain
3:54 PM 66.9 °F 64.0 °F 90% 29.94 in 8.0 mi Calm Calm - 0.34 in Thunderstorm Thunderstorm
4:28 PM 64.4 °F 62.6 °F 94% 29.99 in 2.0 mi North 16.1 mph 28.8 mph 0.16 in Rain , Thunderstorm Heavy Thunderstorms and Rain
4:54 PM 64.9 °F 62.1 °F 90% 29.98 in 5.0 mi Variable 3.5 mph - 0.42 in Rain , Thunderstorm Light Thunderstorms and Rain
5:34 PM 66.2 °F 62.6 °F 88% 29.98 in 7.0 mi SSE 4.6 mph - 0.00 in   Overcast
5:54 PM 66.2 °F 62.6 °F 88% 29.99 in 7.0 mi WSW 3.5 mph - N/A Rain Light Rain
6:34 PM 66.2 °F 60.8 °F 83% 30.01 in 7.0 mi SW 5.8 mph - 0.01 in Rain Light Rain
6:54 PM 66.0 °F 62.1 °F 87% 29.99 in 7.0 mi South 6.9 mph - 0.01 in Rain Light Rain
7:54 PM 66.0 °F 62.1 °F 87% 29.99 in 9.0 mi SE 3.5 mph - 0.00 in   Mostly Cloudy
8:54 PM 64.0 °F 61.0 °F 90% 29.97 in 9.0 mi South 3.5 mph - N/A   Scattered Clouds
9:54 PM 64.0 °F 60.1 °F 87% 29.99 in 10.0 mi Calm Calm - N/A   Scattered Clouds
10:43 PM 62.6 °F 60.8 °F 94% 30.03 in 4.0 mi Calm Calm - N/A   Scattered Clouds
10:49 PM 62.6 °F 60.8 °F 94% 30.03 in 2.0 mi Calm Calm - N/A   Mostly Cloudy
10:54 PM 62.1 °F 60.1 °F 93% 30.01 in 2.0 mi Calm Calm - N/A   Mostly Cloudy
11:54 PM 61.0 °F 60.1 °F 97% 30.01 in 2.0 mi SSE 3.5 mph - N/A   Overcast